326  
ASUS41 KGYX 201210  
RWRGYX  
WEATHER ROUNDUP FOR MAINE AND NEW HAMPSHIRE  
NATIONAL WEATHER SERVICE GRAY ME  
800 AM EDT SAT APR 20 2019  
 
MEZ002-005-006-010-012-015-018-020-021-024-026-027-029-201300-  
MAINE  
 
CITY SKY/WX TMP DP RH WIND PRES REMARKS
 
PORTLAND CLOUDY 56 54 93 S13G21 29.81R FOG  
6HR MIN TEMP: 53; 6HR MAX TEMP: 58; 6HR PCP: TRACE;  
 
SANFORD LGT RAIN 65 63 93 S7 29.81R  
BAR HARBOR LGT RAIN 51 51 100 S15 29.87R VSB 1/2  
WISCASSET LGT RAIN 58 57 97 S8 29.84R  
6HR MIN TEMP: 54; 6HR MAX TEMP: 59; 6HR PCP: 0.01;  
 
ROCKLAND LGT RAIN 52 52 100 SW21G26 29.85R VSB 1/4  
FRYEBURG CLOUDY 64 62 93 VRB5 29.78R  
6HR MIN TEMP: 62; 6HR MAX TEMP: 65; 6HR PCP: 0.28;  
 
LEWISTONAUBURN LGT RAIN 59 59 100 S8 29.80R FOG  
AUGUSTA LGT RAIN 58 58 100 S12G25 29.80R FOG  
6HR MIN TEMP: 57; 6HR MAX TEMP: 60; 6HR PCP: 0.27;  
 
WATERVILLE LGT RAIN 60 59 96 S9G17 29.77R  
BANGOR LGT RAIN 55 54 96 S9 29.81R FOG  
6HR MIN TEMP: 45; 6HR MAX TEMP: 55; 6HR PCP: 0.62;  
 
GREENVILLE N/A 39 38 96 NW7 29.78R  
6HR MIN TEMP: 38; 6HR MAX TEMP: 41; 6HR PCP: 0.35;  
 
MILLINOCKET LGT RAIN 42 38 85 NE7G18 29.85R  
6HR MIN TEMP: 41; 6HR MAX TEMP: 42; 6HR PCP: 0.45;  
 
HOULTON LGT RAIN 41 40 96 N7 29.87S FOG  
6HR MIN TEMP: 40; 6HR MAX TEMP: 42; 6HR PCP: 0.61;  
 
PRESQUE ISLE LGT RAIN 39 37 92 NE12 29.94R  
6HR MIN TEMP: 38; 6HR MAX TEMP: 39; 6HR PCP: 0.60;  
 
FRENCHVILLE HVY RAIN 38 34 85 NE10 29.95R FOG  
6HR MIN TEMP: 38; 6HR MAX TEMP: 39; 6HR PCP: 0.52;  
 
CARIBOU RAIN 40 37 89 NE10 29.93R FOG  
6HR MIN TEMP: 38; 6HR MAX TEMP: 40; 6HR PCP: 0.90;  
 

 
 
NHZ002-005-008-009-011-012-014-201300-  
NEW HAMPSHIRE  
 
CITY SKY/WX TMP DP RH WIND PRES REMARKS
 
PORTSMOUTH CLOUDY 67 63 87 S13 29.79R  
ROCHESTER CLOUDY 67 64 90 S7 29.80R  
6HR MIN TEMP: 65; 6HR MAX TEMP: 67; 6HR PCP: TRACE;  
 
NASHUA LGT RAIN 66 65 96 VRB5 29.80R  
MANCHESTER CLOUDY 67 63 87 S10G21 29.78R  
6HR MIN TEMP: 67; 6HR MAX TEMP: 69; 6HR PCP: 0.01;  
 
CONCORD CLOUDY 64 62 93 SE8 29.79R  
6HR MIN TEMP: 64; 6HR MAX TEMP: 65; 6HR PCP: 0.30;  
 
LACONIA CLOUDY 65 63 93 S10 29.78R  
PLYMOUTH CLOUDY 53 52 96 CALM 29.77R FOG  
BERLIN CLOUDY 51 51 100 SE6 29.73R  
6HR MIN TEMP: 47; 6HR MAX TEMP: 53; 6HR PCP: 0.11;  
 
WHITEFIELD CLOUDY 69 57 65 SW8 29.73R  
6HR MIN TEMP: 65; 6HR MAX TEMP: 69; 6HR PCP: 0.02;  
 
JAFFREY CLOUDY 64 60 87 S15G22 29.79R FOG  
6HR MIN TEMP: 63; 6HR MAX TEMP: 66; 6HR PCP: 0.37;  
 
KEENE CLOUDY 66 62 87 S9 29.78R  
LEBANON PTSUNNY 68 60 75 S17G29 29.73R  
6HR MIN TEMP: 66; 6HR MAX TEMP: 68; 6HR PCP: 0.03;  
 
MT WASHINGTON LGT RAIN 46 46 100 SW48G62 N/A VSB 0  
6HR MAX TEMP: 48; 6HR PCP: 0.20;  
 

 
 
VTZ005-007-008-201300-  
VERMONT  
 
CITY SKY/WX TMP DP RH WIND PRES REMARKS
 
ST JOHNSBURY N/A 66 62 87 MISG 29.70R  
MONTPELIER CLOUDY 46 44 93 NW5 29.77R  
BURLINGTON LGT RAIN 42 40 92 NW9 29.80R FOG  

 
 
MAZ007-012-024-CTZ003-RIZ002-NYZ038-NYZ072-201300-  
SOUTHERN NEW ENGLAND AND NY  
 
CITY SKY/WX TMP DP RH WIND PRES REMARKS
 
BOSTON CLOUDY 67 63 87 S20G31 29.83R  
WORCESTER CLOUDY 63 62 97 S13G22 29.82R  
NANTUCKET FOG 54 53 97 S21G30 29.92R VSB 1/2  
PROVIDENCE CLOUDY 65 64 97 S18G24 29.85R  
HARTFORD LGT RAIN 65 62 90 S10 29.78R  
ALBANY CLOUDY 68 61 78 S14G23 29.70R  
NEW YORK CITY LGT RAIN 59 58 96 S13 29.73F FOG  

 
 
ANZ081-ANZ082-ANZ150-NHZ014-MEZ023>029-201300-  
COASTAL MARINE OBSERVATIONS  
 
STATION/POSITION TIME TEMP WIND PRES WAVE
 
AIR SEA DIR/SP/G HT/PER  
(UTC) (F) (DEG/KT/KT) (MB) (FT/S)  
ISLE OF SHOALS 1200 57 170/ 25/ 27 1009.1R  
CASHES LEDGE BUO 1150 48 42 1011.6R 8/ 7  

 
   
............KEY...........
 
 
WCI - WIND CHILL  
TC - TEMPERATURE IN CELSIUS  
VSB - VISIBILITY
IN MILES  
HX - HEAT INDEX  
FAIR- INDICATES FEW OR NO CLOUDS BELOW 12,000 FT, WITH NO  
SIGNIFICANT WEATHER AND/OR S TO VISIBILITY.  
 
 
 
CLICK HERE TO GO TO PREVIOUS BULLETINS.

The Nexlab ME Page
The Nexlab NH Page Main Text Page